Location: Blocker Cemetery
(34.9554°N, 89.8245°W)
Time: 21:12:59
(UTC+00:00)

Daily predictions for brighter satellites

Satellite Brightness Start Highest point End
(mag) Time Altitude Azimuth Time Altitude Azimuth Time Altitude Azimuth
SL-4 R/B 4.2 12:00:01 10° N 12:02:09 15° NNE 12:04:22 10° ENE
Cosmos 1812 1.5 12:00:17 10° S 12:02:41 84° E 12:05:07 10° N
Cosmos 990 Rocket 3.9 12:00:26 10° SSW 12:05:38 74° WNW 12:10:52 10° NNE
NOSS 3-1 (C) 3.2 12:02:01 10° WSW 12:06:14 40° NW 12:11:05 10° NNE
Exosat Rocket 3.6 12:02:52 10° NNW 12:08:06 56° WSW 12:12:58 10° S
DELTA 2 R/B(2) 3.7 12:06:46 14° WNW 12:09:03 61° SSW 12:10:52 10° ESE
Cosmos 1980 Rocket 2.6 12:04:11 10° SW 12:09:21 38° WNW 12:14:33 10° N
NOSS 3-1 (A) 3.0 12:06:05 10° SSW 12:10:26 72° ESE 12:15:27 10° NE
Cosmos 1674 Rocket 4.2 12:08:39 10° NNW 12:12:38 33° W 12:16:34 10° SSW
Cosmos 2237 4.3 12:08:32 10° SSW 12:14:14 86° ESE 12:19:57 10° NNE
USA 215 3.4 12:08:09 10° SE 12:14:43 82° NE 12:21:19 10° NW
COSMOS 2455 3.7 12:09:56 10° WSW 12:15:03 28° NW 12:20:11 10° N
Cosmos 1697 Rocket 4.3 12:19:30 10° W 12:22:14 14° NW 12:24:57 10° NNW
Cosmos 2084 4.1 12:20:39 10° NW 12:24:16 31° WSW 12:27:51 10° S
